Location: Chervonnoye
(48.6000°N, 34.4000°E)
Time: 19:50:38
(UTC+00:00)

RS-44 - Pass Details

Date: 06 December 2021
Orbit: 1175 x 1510 km, 82.5° (Epoch: 19 January)

Event Time Altitude Azimuth Distance (km) Brightness Sun altitude
Rises 15:11:54 0° 137° (SE) 4,086 ? -13.3°
Reaches altitude 10° 15:15:23 10° 121° (ESE) 3,105 ? -13.8°
Maximum altitude 15:20:13 20° 78° (ENE) 2,441 ? -14.6°
Enters shadow 15:20:32 20° 75° (ENE) 2,445 ? -14.7°
Exits shadow 15:28:27 - 20° (NNE) 4,078 ? -15.9°
Sets 15:28:32 0° 20° (NNE) 4,104 ? -15.9°
